Location: Newark
(7.1028°S, 35.3258°W)
Time: 14:32:43
(UTC+00:00)

Vanguard 3 - Pass Details

Date: 24 February 2020
Orbit: 508 x 3263 km, 33.4° (Epoch: 04 April)

Event Time Altitude Azimuth Distance (km) Brightness Sun altitude
Rises 20:29:43 0° 297° (WNW) 6,382 12.7 2.3°
Reaches altitude 10° 20:33:33 10° 294° (WNW) 5,626 12.5 1.4°
Maximum altitude 20:52:10 68° 214° (SW) 3,421 10.5 -3.2°
Drops below altitude 10° 21:10:50 10° 132° (SE) 5,609 11.1 -7.7°
Sets 21:14:42 0° 129° (SE) 6,359 11.3 -8.7°
